Regional Weather Roundup
Issued by NWS

Home | Current Version | Previous Version | Graphics & Text | Print | Product List | Glossary On
Versions: 1 2 3 4 5 6 7 8 9 10 11 12 13 14 15 16 17 18 19 20 21 22 23 24 25 26 27 28 29 30 31 32 33 34 35 36 37 38 39 40 41 42 43 44 45 46 47 48 49 50
000
ASUS43 KBIS 170510
RWRND

NORTH DAKOTA REGIONAL WEATHER ROUNDUP
NATIONAL WEATHER SERVICE BISMARCK ND
1200 AM CDT WED SEP 17 2014

NOTE: "FAIR" INDICATES FEW OR NO CLOUDS BELOW 12,000 FEET WITH NO
SIGNIFICANT WEATHER AND/OR OBSTRUCTIONS TO VISIBILITY.


NDZ001>003-009>011-017-170600-
NORTHWEST NORTH DAKOTA

CITY           SKY/WX    TMP DP  RH WIND       PRES   REMARKS
WILLISTON      CLEAR     44  37  76 CALM      29.93R HAZE
MINOT          CLEAR     52  45  77 SW9       29.91S
MINOT AFB      CLEAR     47  44  89 SW7       29.90F
$$

NDZ018>021-031>035-040>046-170600-
SOUTHWEST NORTH DAKOTA

CITY           SKY/WX    TMP DP  RH WIND       PRES   REMARKS
BISMARCK       CLEAR     53  46  77 NE6       29.93R
DICKINSON      PTCLDY    49  43  80 S5        29.93S
GARRISON         N/A     48  43  82 N5        29.92S
HETTINGER ARPT CLOUDY    49  44  83 CALM      29.95S
$$

NDZ004>008-012>016-024-026-027-054-170600-
NORTHEAST NORTH DAKOTA

CITY           SKY/WX    TMP DP  RH WIND       PRES   REMARKS
GRAND FORKS    CLEAR     48  42  80 S6        29.90F
GRND FRKS AFB  CLEAR     51  44  77 SW7       29.91F
DEVILS LAKE    CLEAR     54  39  58 S3        29.90F
$$

NDZ022-023-025-028>030-036>039-047>053-170600-
SOUTHEAST NORTH DAKOTA

CITY           SKY/WX    TMP DP  RH WIND       PRES   REMARKS
FARGO          FAIR      57  46  66 SE9       29.91F
JAMESTOWN      CLEAR     47  44  90 CALM      29.91S
$$



USA.gov is the U.S. government's official web portal to all federal, state and local government web resources and services.